Location: DARK SKY Beskydy - Park tmavé oblohy, www.darkskybeskydy.cz
(49.4926°N, 18.5016°E)
Time: 05:12:48
(UTC+02:00)

TIGRISAT - Pass Details

Date: 12 August 2024
Orbit: 591 x 667 km, 97.7° (Epoch: 19 September)

Event Time Altitude Azimuth Distance (km) Brightness Sun altitude
Rises 04:11:54 0° 160° (SSE) 2,918 ? -11.9°
Reaches altitude 10° 04:14:07 10° 158° (SSE) 2,002 ? -11.7°
Maximum altitude 04:18:28 75° 74° (ENE) 646 ? -11.1°
Drops below altitude 10° 04:22:44 10° 350° (N) 1,972 ? -10.6°
Sets 04:24:54 0° 349° (NNW) 2,871 ? -10.3°
